[[{"header":{"parameterUnit":"m.s-1","parameterCategory":1,"la1":30.2991,"la2":30.254,"lo1":-89.0895,"lo2":-89.0444,"dy":0.0017,"dx":0.0017,"nx":28,"ny":28,"refTime":"2023-04-06T21:00:00:Z","depth":0,"parameterNumber":2,"parameterNumberName":"U-component_of_WINDS"},"data":[0,0,0,0,0,0,0,0,0,0,0,0,0,0,0,0,0,0,0,0,0,0,0,0,0,0,0,0,0,0,0,0,0,0,0,0,0,0,0,0,0,0,0,0,0,0,0,0,0,0,0,0,0,0,0,0,0,0,-4.9375,-4.9374,0,-4.925,-4.9249,-4.9247,-4.9143,-4.9142,-4.9141,-4.914,-4.9007,-4.9004,-4.9002,0,0,0,0,0,0,0,0,0,0,0,0,0,-4.9524,-4.9521,-4.9375,-4.9374,-4.9372,-4.925,-4.9248,-4.9247,-4.9144,-4.9142,-4.9141,-4.914,-4.9008,-4.9005,-4.9002,0,0,0,0,0,0,0,0,0,0,0,0,0,-4.9435,-4.9521,-4.9376,-4.9306,-4.9299,-4.9251,-4.9248,-4.9246,-4.9144,-4.9142,-4.9141,-4.9139,-4.9009,-4.9005,-4.9001,-4.901,0,0,-4.899,-4.8988,0,0,0,0,0,0,0,0,-4.944,-4.9429,-4.9318,-4.9311,-4.9302,-4.9211,-4.9252,-4.9167,-4.9144,-4.9202,-4.914,-4.9138,-4.9076,-4.9066,-4.9046,-4.9004,-4.8998,-4.8989,-4.8987,-4.8985,-4.8984,0,0,0,0,0,0,0,-4.9446,-4.9434,-4.9325,-4.9316,-4.9307,-4.9281,-4.9266,-4.9235,-4.915,-4.9197,-4.9189,-4.9176,-4.9071,-4.905,-4.9042,-4.8996,-4.8989,-4.8986,-4.8984,-4.8982,-4.8958,-4.896,0,0,0,0,0,0,-4.9464,-4.944,-4.9329,-4.9322,-4.9369,-4.9279,-4.9263,-4.9242,-4.915,-4.9134,-4.9178,-4.9172,-4.9057,-4.9047,-4.9037,-4.9042,-4.8985,-4.8982,-4.898,-4.8957,-4.8959,-4.8961,0,0,0,0,0,0,-4.9467,-4.9455,-4.9334,-4.9379,-4.9362,-4.9279,-4.9255,-4.924,-4.9219,-4.9135,-4.9119,-4.9172,-4.9056,-4.9043,-4.9019,-4.9036,-4.898,-4.8977,-4.8955,-4.8957,-4.896,-4.9053,0,0,0,0,0,0,-4.9472,-4.9457,-4.9459,-4.938,-4.936,-4.9319,-4.9256,-4.9239,-4.9213,-4.9204,-4.9125,-4.9111,-4.9053,-4.9025,-4.9015,-4.903,-4.8974,-4.8953,-4.8956,-4.8959,-4.9048,-4.9058,-4.9067,0,0,0,0,0,-4.9477,-4.9489,-4.946,-4.9447,-4.9361,-4.932,-4.9308,-4.9243,-4.9215,-4.9217,-4.9164,-4.9113,-4.9037,-4.9024,-4.9011,-4.9025,-4.8951,-4.8955,-4.8959,-4.9043,-4.9056,-4.9067,0,0,0,0,0,0,-4.9569,-4.9477,-4.9443,-4.943,-4.9384,-4.9303,-4.9302,-4.9259,-4.9218,-4.9211,-4.9132,-4.9115,-4.91,-4.906,-4.9047,-4.9031,-4.8988,-4.8989,-4.9056,-4.9068,-4.9077,-4.9085,-4.8971,0,0,0,0,0,-4.9589,-4.9564,-4.9484,-4.9479,-4.9458,-4.9385,-4.9364,-4.9319,-4.9268,-4.9247,-4.9192,-4.9143,-4.9108,-4.9086,-4.9049,-4.9043,-4.9025,-4.9047,-4.9057,-4.9066,-4.9067,-4.9062,-4.9071,-4.8973,-4.8973,-4.8973,0,0,-4.9626,-4.9573,-4.9561,-4.9496,-4.9455,-4.9431,-4.9369,-4.9345,-4.9326,-4.9243,-4.9217,-4.9176,-4.9116,-4.9102,-4.9093,-4.9069,-4.9091,-4.907,-4.9078,-4.9074,-4.9067,-4.9076,-4.9084,-4.8975,-4.8975,-4.8974,0,0,-4.9682,-4.964,-4.9632,-4.9594,-4.9534,-4.9486,-4.9485,-4.9412,-4.9382,-4.9356,-4.9294,-4.927,-4.9212,-4.9172,-4.9144,-4.9193,-4.9145,-4.9183,-4.9232,-4.9229,-4.9236,-4.9243,-4.9259,-4.9266,-4.9185,-4.9186,-4.9186,0,-4.9736,-4.9698,-4.9633,-4.9614,-4.9588,-4.9516,-4.9507,-4.9473,-4.9404,-4.9387,-4.9362,-4.929,-4.9244,-4.922,-4.9233,-4.9213,-4.9209,-4.9189,-4.9241,-4.9247,-4.9252,-4.9266,-4.9273,-4.919,-4.919,-4.9189,-4.9189,0,-4.9767,-4.9742,-4.9743,-4.9681,-4.9655,-4.9641,-4.9575,-4.9557,-4.9516,-4.9471,-4.9447,-4.9391,-4.9343,-4.9334,-4.9292,-4.9306,-4.9293,-4.9256,-4.921,-4.9267,-4.928,-4.9285,-4.9198,-4.9196,-4.9194,-4.9193,0,0,-4.9871,-4.9779,-4.978,-4.9752,-4.9684,-4.9662,-4.9647,-4.9602,-4.9588,-4.9545,-4.9529,-4.9485,-4.9451,-4.942,-4.9374,-4.9372,-4.9414,-4.9335,-4.9332,-4.935,-4.9425,-4.9452,-4.9459,-4.9384,-4.9385,-4.9385,-4.943,0,-4.9915,-4.9883,-4.9828,-4.9814,-4.979,-4.9725,-4.9711,-4.9668,-4.9628,-4.9601,-4.9556,-4.9525,-4.9484,-4.9465,-4.946,-4.941,-4.9427,-4.9406,-4.9367,-4.9366,-4.9381,-4.9466,-4.9492,-4.9537,-4.9434,-4.9435,-4.9436,0,-4.996,-4.9924,-4.9908,-4.9845,-4.9833,-4.9822,-4.9778,-4.9755,-4.9705,-4.9676,-4.9645,-4.9596,-4.9577,-4.9539,-4.9511,-4.9498,-4.9479,-4.9453,-4.9454,-4.9444,-4.9402,-4.9457,-4.9549,-4.9555,-4.9443,-4.9442,-4.9442,0,-5.0037,-4.9984,-4.9968,-4.9947,-4.9873,-4.9867,-4.9836,-4.9785,-4.9763,-4.9725,-4.971,-4.967,-4.9648,-4.9618,-4.956,-4.9538,-4.9539,-4.9496,-4.9513,-4.9515,-4.9512,-4.9513,-4.9601,-4.9506,-4.9506,-4.9506,-4.9505,0,-5.0089,-5.0082,-5.0002,-4.9992,-4.9983,-4.9921,-4.9913,-4.9876,-4.9833,-4.9814,-4.9756,-4.974,-4.9666,-4.9642,-4.9597,-4.9581,-4.9571,-4.9546,-4.9534,-4.955,-4.9553,-4.9534,-4.9528,-4.9507,-4.9507,-4.9507,-4.9506,0,-5.0171,-5.0117,-5.0096,-5.003,-5.0013,-5.001,-4.9952,-4.9941,-4.9899,-4.9877,-4.9868,-4.9802,-4.9771,-4.9712,-4.9663,-4.9634,-4.9627,-4.9607,-4.9644,-4.9636,-4.9656,-4.9654,-4.9732,-4.9739,-4.9643,-4.9644,-4.9645,0,-5.0206,-5.02,-5.0135,-5.012,-5.0092,-5.0067,-5.0046,-4.9986,-4.9965,-4.9912,-4.9907,-4.9872,-4.984,-4.9794,-4.9741,-4.9704,-4.9682,-4.9712,-4.9675,-4.9693,-4.968,-4.968,-4.9679,-4.9719,-4.972,-4.9721,-4.9722,0,-5.0275,-5.025,-5.0222,-5.0186,-5.0163,-5.0131,-5.0096,-5.0087,-5.0019,-4.9999,-4.9968,-4.9944,-4.9898,-4.9863,-4.982,-4.9787,-4.9743,-4.9735,-4.9737,-4.9751,-4.9773,-4.976,-4.9664,-4.9732,-4.9731,-4.973,-4.973,-4.973,-5.0333,-5.0325,-5.0279,-5.0251,-5.022,-5.019,-5.0176,-5.0135,-5.0109,-5.0067,-5.0033,-5.0005,-4.996,-4.9897,-4.9868,-4.9845,-4.9824,-4.9827,-4.9827,-4.9828,-4.9834,-4.978,-4.9837,-4.9837,-4.9837,-4.9836,-4.9836,0,-5.0398,-5.0366,-5.0341,-5.0296,-5.0275,-5.024,-5.02,-5.0184,-5.0161,-5.0123,-5.0095,-5.006,-5.0029,-4.9976,-4.994,-4.9932,-4.9911,-4.9924,-4.9922,-4.9916,-4.9856,-4.9857,-4.9942,-4.9942,-4.9942,-4.9942,-4.9942,-4.9942,-5.0428,-5.0414,-5.0385,-5.0355,-5.0323,-5.0297,-5.0277,-5.025,-5.0219,-5.0185,-5.0159,-5.0126,-5.0082,-5.0044,-5.0013,-4.9998,-4.9987,-5.0006,-4.9985,-4.993,-4.9919,-4.991,-4.9911,-5.0005,-5.0005,-5.0046,-5.0047,-5.0047]},{"header":{"parameterUnit":"m.s-1","parameterCategory":1,"la1":30.2991,"la2":30.254,"lo1":-89.0895,"lo2":-89.0444,"dy":0.0017,"dx":0.0017,"nx":28,"ny":28,"refTime":"2023-04-06T21:00:00:Z","depth":0,"parameterNumber":3,"parameterNumberName":"V-component_of_WINDS"},"data":[0,0,0,0,0,0,0,0,0,0,0,0,0,0,0,0,0,0,0,0,0,0,0,0,0,0,0,0,0,0,0,0,0,0,0,0,0,0,0,0,0,0,0,0,0,0,0,0,0,0,0,0,0,0,0,0,0,0,2.756,2.756,0,2.7582,2.7582,2.7582,2.766,2.7662,2.7664,2.7665,2.7683,2.7682,2.7681,0,0,0,0,0,0,0,0,0,0,0,0,0,2.7584,2.7583,2.756,2.756,2.756,2.7582,2.7582,2.7582,2.766,2.7662,2.7664,2.7666,2.7684,2.7682,2.7681,0,0,0,0,0,0,0,0,0,0,0,0,0,2.7586,2.7583,2.756,2.7602,2.7606,2.7581,2.7582,2.7582,2.7659,2.7662,2.7665,2.7667,2.7684,2.7682,2.7681,2.7616,0,0,2.7675,2.7675,0,0,0,0,0,0,0,0,2.7586,2.7585,2.7595,2.7599,2.7603,2.7621,2.7597,2.7593,2.7659,2.7639,2.7665,2.7669,2.766,2.7661,2.7659,2.7617,2.7618,2.7675,2.7674,2.7673,2.7673,0,0,0,0,0,0,0,2.7586,2.7585,2.7568,2.7595,2.76,2.7619,2.7622,2.7597,2.7634,2.7641,2.7647,2.7648,2.7663,2.766,2.766,2.7618,2.7675,2.7674,2.7673,2.7672,2.7528,2.7525,0,0,0,0,0,0,2.758,2.7584,2.7568,2.7569,2.7601,2.7616,2.762,2.7613,2.7635,2.7641,2.7646,2.7652,2.7662,2.7662,2.766,2.7589,2.7673,2.7672,2.7671,2.7531,2.7527,2.7524,0,0,0,0,0,0,2.758,2.7578,2.7567,2.7578,2.7578,2.7613,2.7604,2.7612,2.7609,2.7639,2.7645,2.7636,2.7664,2.7663,2.7628,2.759,2.7671,2.7669,2.7534,2.753,2.7526,2.7443,0,0,0,0,0,0,2.7581,2.7577,2.7553,2.7577,2.7577,2.7534,2.7602,2.761,2.7606,2.7614,2.7631,2.7637,2.7666,2.763,2.7626,2.7589,2.7668,2.7537,2.7532,2.7527,2.7449,2.7436,2.7425,0,0,0,0,0,2.7581,2.7527,2.7552,2.7549,2.7548,2.7531,2.7531,2.7567,2.7603,2.7579,2.7599,2.7636,2.7595,2.7626,2.7622,2.7584,2.754,2.7533,2.7527,2.7454,2.7439,2.7426,0,0,0,0,0,0,2.7496,2.7531,2.7558,2.7511,2.7518,2.7545,2.7515,2.7549,2.7545,2.7552,2.7596,2.7599,2.7558,2.7567,2.7601,2.7524,2.7574,2.7567,2.752,2.7505,2.7493,2.7492,2.7666,0,0,0,0,0,2.7472,2.7456,2.7488,2.7443,2.7445,2.748,2.7473,2.7501,2.7509,2.7512,2.7529,2.7534,2.7523,2.7515,2.7506,2.7451,2.7457,2.7423,2.7411,2.7402,2.7395,2.7369,2.7355,2.7504,2.7504,2.7504,0,0,2.7421,2.7439,2.7426,2.7426,2.7435,2.7418,2.7481,2.7459,2.7447,2.7508,2.7477,2.7489,2.7499,2.7454,2.7435,2.7461,2.7355,2.7394,2.7386,2.7384,2.7361,2.7347,2.7335,2.75,2.75,2.7501,0,0,2.7321,2.7332,2.7298,2.7306,2.7319,2.7343,2.7335,2.7357,2.7369,2.7338,2.7385,2.737,2.7349,2.7355,2.7355,2.726,2.7295,2.7256,2.7194,2.7169,2.7157,2.7147,2.7115,2.7103,2.7249,2.7249,2.7249,0,2.7256,2.7233,2.7275,2.7252,2.7251,2.7308,2.7274,2.7279,2.7287,2.7285,2.7314,2.7292,2.7302,2.7261,2.7238,2.7235,2.7228,2.7254,2.7156,2.7146,2.7137,2.7107,2.7094,2.7244,2.7245,2.7245,2.7246,0,2.7154,2.7138,2.7108,2.7118,2.7114,2.7084,2.7122,2.7113,2.7141,2.7162,2.7131,2.7146,2.7142,2.7134,2.716,2.7097,2.7113,2.7148,2.7199,2.7117,2.709,2.7079,2.7237,2.7239,2.724,2.7242,0,0,2.6999,2.7035,2.7024,2.703,2.705,2.7038,2.7012,2.7011,2.7003,2.7007,2.6987,2.697,2.7003,2.7003,2.7031,2.7008,2.6935,2.7047,2.7047,2.7026,2.6869,2.6843,2.6829,2.6959,2.6957,2.6955,2.6869,0,2.6905,2.6865,2.6903,2.6854,2.6841,2.6896,2.6874,2.6883,2.6903,2.6893,2.6914,2.6902,2.6946,2.6947,2.6927,2.6948,2.6904,2.6955,2.6941,2.694,2.6937,2.6815,2.6787,2.6704,2.6858,2.6856,2.6855,0,2.679,2.6793,2.6743,2.677,2.6766,2.6745,2.6748,2.6739,2.6751,2.6767,2.6769,2.6804,2.6781,2.6831,2.68,2.6833,2.683,2.6839,2.6837,2.6838,2.6893,2.6813,2.6679,2.6667,2.6838,2.6839,2.684,0,2.6684,2.6675,2.6645,2.6649,2.6678,2.6663,2.6674,2.669,2.6688,2.669,2.669,2.6688,2.6687,2.6686,2.672,2.6752,2.6685,2.6737,2.6698,2.6697,2.6681,2.6682,2.6546,2.6677,2.6677,2.6677,2.6678,0,2.6576,2.6544,2.6599,2.658,2.6547,2.6591,2.6557,2.6573,2.6588,2.6574,2.662,2.6606,2.6652,2.6642,2.6668,2.664,2.6638,2.6651,2.6658,2.6647,2.6646,2.6646,2.6653,2.6674,2.6675,2.6675,2.6676,0,2.6452,2.6487,2.6459,2.649,2.6498,2.6472,2.6499,2.6483,2.6507,2.6488,2.6487,2.6523,2.6515,2.6549,2.6545,2.6563,2.6521,2.6537,2.6517,2.6523,2.6482,2.6486,2.6342,2.6326,2.6466,2.6465,2.6464,0,2.6381,2.6358,2.6389,2.6384,2.6394,2.6384,2.6383,2.6426,2.6423,2.6438,2.6421,2.6417,2.6416,2.64,2.6425,2.6424,2.6441,2.6391,2.6441,2.6431,2.6442,2.6444,2.6442,2.638,2.6379,2.6377,2.6376,0,2.6252,2.6272,2.6269,2.6273,2.6271,2.6276,2.6283,2.6276,2.6323,2.6317,2.631,2.631,2.6308,2.6304,2.6308,2.6319,2.6355,2.636,2.6352,2.634,2.633,2.6337,2.649,2.6363,2.6365,2.6366,2.6366,2.6367,2.6154,2.6137,2.6157,2.6153,2.6164,2.6171,2.6159,2.6183,2.6178,2.6182,2.6207,2.6196,2.6212,2.6222,2.6229,2.6221,2.6245,2.6231,2.6228,2.6224,2.6218,2.6331,2.6222,2.6222,2.6223,2.6223,2.6223,0,2.6029,2.6045,2.6041,2.6052,2.605,2.6086,2.6097,2.6092,2.6083,2.6095,2.6094,2.6088,2.6085,2.6111,2.6111,2.61,2.6117,2.6099,2.61,2.6103,2.6196,2.6205,2.6085,2.6085,2.6085,2.6085,2.6085,2.6085,2.5964,2.5939,2.5961,2.5943,2.5959,2.595,2.5954,2.5961,2.5971,2.5962,2.5961,2.5979,2.5997,2.6,2.5999,2.6007,2.6005,2.5982,2.5995,2.6082,2.6096,2.6108,2.6117,2.5981,2.5981,2.5903,2.5902,2.5901]}]]